Wind_Speed
13 13 14 14 15 15 15 14 13 13 13 13 13 13 13 13 14 14 15 15 15 16 16 15 16 17 16 16 15 15 15 17 17 17 18 19 18 19 20 20 20 19 18
13 14 14 15 15 16 16 15 14 14 13 13 13 13 12 12 13 14 15 15 15 16 17 16 17 17 17 17 16 15 15 17 18 18 19 18 18 19 20 20 20 20 18
14 14 15 15 16 16 16 16 15 15 14 13 13 12 12 12 12 13 14 14 15 16 17 17 17 18 17 17 17 16 17 18 19 19 19 19 19 19 20 21 21 21 19
14 15 15 16 16 17 17 17 16 15 14 13 13 12 12 11 11 12 13 14 15 16 17 18 18 18 19 18 18 17 18 19 19 19 19 19 20 20 21 21 22 21 20
14 15 15 16 16 17 17 17 17 16 14 14 13 12 12 11 10 10 12 13 15 16 17 18 19 19 20 19 19 19 19 19 20 20 19 19 20 20 22 22 23 23 21
14 14 15 16 17 17 18 18 17 16 15 14 13 12 12 11 10 10 11 12 14 15 17 18 19 20 21 21 20 20 20 20 21 22 20 20 19 21 22 22 24 24 23
14 15 16 17 17 18 18 18 17 17 16 15 14 13 12 11 10 9 10 11 13 15 16 18 19 20 21 21 21 21 21 22 23 23 23 21 21 21 23 24 25 24 23
15 16 17 17 18 18 18 18 17 17 17 16 15 14 13 11 10 10 9 10 11 14 16 17 19 20 20 21 22 22 22 22 23 24 24 23 22 22 23 24 25 24 24
16 17 17 18 18 18 19 18 18 17 17 16 15 14 13 13 11 10 10 10 10 12 14 16 18 20 21 21 22 23 22 22 22 23 24 24 24 24 24 24 24 24 24
17 17 18 18 18 19 19 19 19 18 18 17 15 14 13 13 12 11 10 9 9 11 13 15 17 20 21 22 22 22 23 23 24 24 25 25 25 25 26 25 25 25 24
18 18 19 19 19 20 20 20 20 19 18 17 16 14 13 13 12 11 11 10 9 10 12 14 16 19 21 22 22 22 23 24 25 25 25 26 27 26 27 26 26 27 26
19 19 20 20 20 21 21 21 20 19 18 17 16 15 14 13 12 11 11 10 9 9 11 13 15 17 20 21 23 23 24 25 25 26 26 27 28 28 28 28 27 28 27
19 20 21 21 21 22 22 21 21 20 19 18 16 16 15 14 13 12 11 10 9 9 9 11 14 16 19 21 22 24 24 25 26 26 27 28 28 28 28 29 29 29 29
20 20 21 22 22 22 22 22 21 20 20 19 18 17 15 14 14 13 12 11 11 10 10 10 13 15 18 20 22 23 24 26 27 27 27 28 28 28 29 29 30 30 30
21 22 22 23 23 23 23 23 22 22 21 19 18 17 17 16 15 14 13 12 12 11 12 12 13 14 17 20 22 23 25 26 27 28 28 28 28 28 28 29 30 30 31
22 23 23 24 24 24 24 24 24 23 22 21 20 19 18 17 16 16 15 14 13 13 13 14 14 15 17 19 22 24 25 26 27 27 29 29 30 30 29 29 30 31 32
23 24 25 26 26 25 25 25 25 24 23 23 22 21 20 19 18 18 17 16 15 15 14 15 15 16 17 19 21 24 25 26 28 28 29 29 30 30 31 31 30 31 33
24 25 26 27 27 27 27 27 27 26 26 25 24 23 21 20 19 19 18 18 17 17 16 17 17 18 18 19 21 23 25 27 28 29 30 31 31 31 32 32 31 32 32
26 27 28 29 28 28 29 29 28 28 27 26 24 23 22 21 20 20 20 20 19 19 19 19 19 20 21 21 22 24 26 28 29 30 31 32 32 32 33 34 33 33 33
28 28 29 30 30 30 31 30 30 29 28 26 25 24 23 22 21 21 21 21 21 21 21 21 22 22 23 23 24 25 26 29 30 31 32 33 33 34 35 35 35 35 34
30 30 31 32 32 32 32 31 30 29 27 27 26 26 25 24 24 24 24 23 23 23 24 24 24 25 25 26 26 27 28 30 31 32 33 35 35 35 36 36 36 36 35
31 32 33 33 33 33 32 31 30 29 28 28 28 27 27 26 26 27 27 27 26 26 26 26 26 27 28 29 29 30 30 31 33 35 36 36 37 37 37 37 37 36 36
32 33 34 35 34 34 33 32 30 29 29 29 29 29 29 29 28 28 29 30 30 30 30 30 30 30 31 31 32 33 33 34 34 35 37 37 38 38 37 38 38 38 38
34 34 35 36 36 35 34 33 32 31 31 31 32 32 31 30 30 30 31 32 33 33 33 33 33 33 33 34 35 35 35 36 37 37 38 38 38 39 39 39 39 39 38
35 36 36 37 36 36 35 34 34 34 34 34 35 34 33 32 32 33 34 35 35 36 36 36 36 36 36 36 36 36 36 37 38 38 39 40 40 40 40 40 40 40 40
37 38 38 38 37 37 37 36 36 36 36 36 37 37 36 35 35 35 35 36 37 38 38 39 38 38 38 38 39 38 38 38 39 40 40 40 40 41 41 41 40 40 41
Wind_Direction
338 339 339 338 337 336 333 330 325 321 315 309 303 297 288 279 270 262 255 249 243 240 237 233 229 227 226 225 226 223 220 211 206 202 199 199 196 190 189 191 192 193 192
339 339 340 341 342 341 338 334 328 324 320 315 308 302 295 285 273 264 254 248 243 239 235 233 228 226 224 224 223 222 215 209 204 203 202 200 198 195 193 196 196 194 194
343 343 343 343 344 344 342 339 334 330 325 320 313 307 300 290 276 265 255 248 242 237 235 232 229 225 222 223 220 218 211 207 205 202 202 202 202 202 200 198 198 197 195
346 346 347 346 345 344 342 341 338 334 330 325 319 312 307 296 280 265 255 250 242 236 234 232 229 227 223 222 219 217 215 211 206 204 204 205 205 206 204 201 200 198 198
345 345 346 345 344 343 343 342 341 337 332 329 325 319 314 306 288 269 258 251 245 237 234 231 229 228 225 223 220 218 215 212 210 209 208 209 209 207 205 203 201 200 201
345 344 344 343 343 343 343 343 342 339 336 332 328 323 318 314 300 279 265 255 247 240 235 232 230 228 224 223 222 220 216 216 216 214 212 210 208 206 203 201 200 201 202
347 345 343 343 342 343 344 344 342 341 339 336 332 327 322 317 309 293 275 260 249 240 235 232 229 228 225 223 222 222 220 219 219 216 214 213 209 205 203 201 200 201 203
346 344 343 342 341 342 342 343 343 342 340 336 333 330 326 320 312 303 288 270 253 242 236 232 229 227 225 223 222 221 220 220 218 217 215 213 210 208 207 204 202 204 206
346 344 343 343 343 344 344 343 342 342 341 338 335 331 328 323 316 308 296 278 257 244 238 233 230 228 226 223 222 221 219 217 216 214 214 213 212 211 211 209 208 208 210
346 345 345 345 345 344 344 344 342 341 339 337 335 332 328 324 319 312 301 283 263 250 243 237 234 230 228 225 223 221 219 216 216 215 216 216 215 215 214 213 213 212 213
345 345 345 345 344 344 343 343 342 340 339 337 334 331 327 324 319 314 306 291 271 256 248 242 237 232 229 226 224 223 222 219 217 217 218 219 218 218 216 217 217 216 217
343 343 343 343 343 342 341 340 339 338 336 335 333 330 327 324 319 313 308 297 280 262 251 245 240 234 230 228 227 224 223 222 220 221 220 220 219 219 219 219 220 220 220
340 341 341 340 340 339 339 337 336 334 333 330 328 328 325 321 318 313 309 300 286 270 257 247 242 237 232 230 227 226 224 225 225 224 223 224 223 222 222 223 223 222 223
335 337 338 337 337 336 335 334 333 331 329 327 325 323 323 319 315 311 306 300 291 279 268 257 247 242 236 233 229 228 226 227 227 227 227 227 226 226 226 227 225 224 225
332 333 334 334 333 332 331 330 329 327 325 323 320 318 317 315 313 308 303 298 293 284 275 267 257 249 240 235 232 230 229 229 230 230 230 230 230 230 229 229 228 227 228
328 329 330 330 330 329 327 326 325 323 321 318 315 313 310 308 305 303 299 296 292 286 279 272 263 254 248 240 235 233 233 233 233 232 230 230 231 232 233 231 232 231 231
325 325 326 327 326 325 324 323 322 321 318 315 311 308 305 301 298 296 294 292 289 285 280 275 269 258 251 247 242 239 237 236 236 235 233 232 232 233 234 233 234 234 232
321 322 323 324 323 323 323 322 321 320 317 314 309 304 301 296 292 290 288 287 285 283 279 275 272 265 258 253 249 244 243 240 239 237 237 235 234 234 235 235 236 236 234
318 319 321 322 322 322 321 320 319 318 315 312 307 302 297 293 288 286 285 284 283 282 279 276 273 269 264 259 256 250 246 242 242 239 238 238 237 237 236 236 237 238 239
317 318 320 321 321 320 320 319 317 316 314 311 306 301 297 291 286 284 282 281 280 280 279 277 274 270 267 263 259 254 250 246 244 242 240 240 240 239 239 239 239 240 241
315 317 318 319 319 319 318 317 316 314 312 309 306 302 297 291 285 282 281 279 279 278 278 277 275 272 269 266 263 258 255 250 247 246 243 242 242 241 240 240 240 241 241
312 314 316 317 317 316 316 315 314 313 311 308 306 303 298 293 287 284 281 279 278 277 276 276 275 273 270 267 265 262 258 255 252 249 246 243 243 242 242 242 241 241 241
311 313 314 315 315 314 313 313 311 310 309 308 307 303 298 293 288 284 282 279 278 278 277 275 275 274 271 268 266 263 260 257 254 251 248 245 244 243 243 243 242 242 241
311 312 313 314 314 313 311 310 308 307 306 305 305 303 299 294 289 286 283 281 279 277 277 275 274 273 271 269 266 264 261 257 254 252 250 248 247 245 244 244 243 242 243
310 311 311 312 312 312 310 307 305 304 305 304 303 302 299 294 292 291 287 283 279 276 275 274 274 272 271 269 267 265 262 258 255 252 250 248 247 245 244 243 244 244 244
309 309 310 310 309 309 309 305 303 303 304 304 303 302 299 295 293 292 289 285 282 278 276 274 273 272 270 268 266 263 261 257 255 251 248 247 246 245 244 244 245 244 244
Height
5864 5862 5860 5857 5855 5852 5850 5848 5846 5844 5842 5841 5840 5839 5838 5838 5838 5838 5839 5841 5842 5844 5846 5848 5850 5852 5855 5857 5859 5861 5863 5864 5867 5870 5872 5874 5876 5878 5882 5886 5890 5893 5897
5863 5861 5859 5856 5854 5851 5848 5846 5844 5842 5840 5838 5837 5836 5835 5834 5834 5835 5836 5837 5839 5841 5843 5845 5847 5849 5852 5854 5856 5858 5860 5861 5865 5868 5871 5873 5876 5878 5881 5885 5888 5892 5894
5862 5860 5858 5855 5853 5850 5847 5844 5842 5840 5838 5836 5834 5833 5832 5831 5831 5831 5832 5834 5835 5837 5839 5842 5844 5846 5849 5851 5853 5856 5858 5860 5863 5866 5869 5871 5874 5876 5879 5883 5886 5890 5894
5862 5859 5857 5854 5852 5849 5846 5843 5840 5838 5836 5834 5832 5830 5829 5828 5828 5828 5829 5830 5832 5834 5836 5838 5841 5843 5846 5848 5851 5854 5856 5859 5861 5864 5867 5869 5872 5874 5876 5879 5883 5887 5891
5861 5858 5856 5853 5851 5848 5845 5842 5839 5836 5834 5832 5830 5828 5827 5826 5825 5825 5826 5827 5828 5830 5833 5835 5837 5840 5843 5845 5848 5851 5853 5856 5859 5862 5864 5867 5869 5870 5872 5874 5879 5884 5889
5860 5858 5855 5852 5850 5847 5844 5840 5837 5834 5832 5830 5828 5826 5825 5824 5823 5823 5823 5824 5825 5826 5829 5831 5834 5836 5839 5842 5845 5848 5850 5853 5856 5859 5862 5864 5866 5866 5868 5869 5875 5881 5886
5859 5856 5854 5851 5848 5845 5842 5839 5836 5833 5831 5828 5827 5825 5823 5822 5821 5820 5820 5821 5822 5823 5825 5827 5830 5833 5835 5838 5841 5844 5847 5849 5852 5855 5858 5862 5864 5866 5867 5869 5874 5879 5884
5858 5855 5853 5850 5847 5844 5841 5838 5835 5832 5830 5827 5825 5823 5822 5821 5819 5819 5818 5818 5819 5820 5822 5824 5826 5829 5832 5835 5838 5841 5843 5844 5846 5850 5854 5859 5862 5865 5867 5870 5874 5878 5882
5857 5854 5851 5848 5845 5842 5839 5836 5834 5831 5828 5826 5823 5822 5820 5819 5818 5817 5816 5815 5816 5817 5818 5820 5823 5825 5828 5831 5834 5837 5839 5840 5843 5846 5851 5856 5859 5863 5866 5869 5872 5876 5879
5855 5853 5850 5847 5844 5841 5838 5835 5832 5829 5826 5824 5822 5820 5818 5817 5816 5815 5814 5813 5813 5814 5815 5817 5819 5822 5824 5827 5830 5833 5835 5837 5841 5844 5848 5852 5856 5860 5863 5866 5870 5873 5876
5854 5851 5848 5845 5842 5839 5836 5833 5830 5827 5824 5822 5820 5818 5816 5815 5814 5813 5812 5811 5811 5812 5812 5814 5816 5818 5821 5823 5826 5829 5832 5835 5837 5841 5845 5848 5852 5856 5859 5863 5866 5869 5873
5852 5849 5846 5843 5840 5837 5834 5831 5828 5825 5822 5820 5818 5816 5814 5813 5812 5811 5810 5809 5809 5809 5810 5811 5812 5815 5817 5819 5822 5825 5828 5832 5834 5838 5841 5844 5848 5852 5855 5859 5862 5865 5869
5850 5847 5844 5841 5838 5834 5831 5828 5825 5822 5820 5817 5815 5813 5812 5810 5809 5808 5808 5807 5807 5807 5807 5808 5809 5811 5813 5815 5818 5821 5824 5828 5831 5833 5837 5840 5843 5847 5850 5854 5857 5860 5864
5848 5845 5842 5839 5835 5832 5828 5825 5822 5819 5816 5814 5812 5810 5809 5808 5807 5806 5805 5805 5805 5805 5805 5805 5806 5807 5809 5811 5814 5817 5820 5823 5826 5829 5832 5835 5838 5842 5845 5848 5851 5855 5858
5845 5842 5839 5836 5832 5828 5825 5822 5819 5815 5813 5810 5808 5807 5805 5804 5804 5803 5802 5802 5803 5802 5802 5802 5803 5804 5805 5807 5810 5812 5815 5818 5821 5824 5827 5830 5833 5837 5840 5843 5846 5849 5853
5842 5839 5836 5832 5828 5825 5821 5818 5814 5811 5808 5806 5804 5803 5801 5801 5800 5799 5799 5799 5799 5799 5799 5799 5799 5800 5801 5803 5805 5808 5810 5813 5816 5819 5822 5825 5828 5831 5834 5837 5840 5843 5846
5838 5835 5832 5828 5824 5820 5816 5813 5809 5806 5803 5800 5798 5797 5796 5795 5795 5795 5794 5794 5795 5795 5795 5795 5795 5796 5797 5798 5800 5803 5805 5808 5810 5813 5816 5819 5822 5825 5828 5831 5834 5837 5840
5834 5831 5827 5823 5819 5815 5811 5807 5803 5800 5797 5794 5792 5790 5789 5789 5789 5789 5789 5789 5790 5790 5790 5791 5791 5791 5792 5793 5795 5797 5799 5802 5804 5807 5809 5812 5815 5818 5821 5824 5827 5830 5833
5829 5825 5822 5818 5813 5809 5805 5801 5797 5794 5790 5787 5785 5783 5782 5782 5782 5782 5783 5783 5784 5784 5784 5785 5785 5786 5786 5788 5789 5791 5792 5795 5797 5800 5803 5805 5808 5811 5814 5817 5820 5823 5826
5823 5820 5816 5811 5807 5803 5799 5794 5790 5786 5783 5780 5778 5776 5776 5775 5775 5776 5776 5776 5777 5777 5778 5778 5779 5779 5780 5781 5782 5784 5785 5788 5790 5792 5795 5798 5800 5803 5806 5809 5812 5815 5818
5817 5813 5809 5805 5800 5796 5792 5787 5783 5779 5776 5774 5771 5770 5768 5768 5768 5768 5769 5769 5770 5770 5771 5771 5771 5772 5773 5774 5775 5776 5777 5779 5781 5784 5786 5789 5792 5795 5798 5801 5804 5807 5810
5810 5806 5802 5798 5793 5789 5784 5780 5776 5773 5770 5767 5765 5763 5761 5760 5760 5760 5760 5761 5761 5762 5762 5763 5763 5764 5765 5765 5766 5767 5769 5770 5773 5775 5777 5780 5782 5786 5789 5792 5795 5798 5801
5802 5798 5794 5790 5785 5781 5777 5773 5769 5766 5763 5760 5758 5756 5754 5752 5751 5751 5751 5752 5752 5752 5752 5753 5754 5754 5755 5756 5756 5757 5758 5760 5762 5765 5766 5770 5773 5776 5779 5782 5785 5788 5792
5794 5790 5786 5782 5777 5773 5768 5764 5761 5759 5756 5753 5750 5747 5745 5743 5742 5742 5741 5741 5741 5741 5741 5742 5742 5743 5743 5744 5745 5746 5747 5749 5751 5753 5756 5759 5762 5765 5769 5772 5775 5778 5782
5786 5782 5777 5773 5768 5764 5760 5756 5752 5750 5747 5744 5741 5738 5735 5734 5732 5731 5730 5730 5729 5729 5729 5729 5729 5729 5730 5730 5731 5733 5734 5736 5739 5742 5744 5747 5751 5754 5758 5761 5765 5768 5771
5777 5773 5768 5764 5759 5755 5750 5746 5743 5741 5738 5735 5732 5728 5725 5723 5721 5719 5718 5717 5717 5716 5716 5716 5716 5716 5716 5717 5717 5718 5720 5722 5724 5728 5732 5735 5739 5742 5746 5750 5754 5757 5761